Weather History for Ardmore, OK

Change the Weather History Date:

Friday, February 15, 2013

  Actual Average Record
Temperature  
Mean Temperature 41 °F -  
Max Temperature 50 °F 55 °F 80 °F (2000)
Min Temperature 32 °F 37 °F 19 °F (2007)
Degree Days  
Heating Degree Days 24    
Moisture  
Dew Point 31 °F    
Average Humidity 63    
Maximum Humidity 76    
Minimum Humidity 40    
Precipitation  
Precipitation 0.00 in - - ()
Sea Level Pressure  
Sea Level Pressure 30.29 in    
Wind  
Wind Speed 14 mph (NNE)    
Max Wind Speed 21 mph    
Max Gust Speed 28 mph    
Visibility 10 miles    
Events Rain    
Averages and records for this station are not official NWS values.
T = Trace of Precipitation, MM = Missing Value Source: NWS Daily Summary

Daily Weather History Graph

Daily Weather History Graph

Search for Another Location

Airport:

Trip Planner

Search our weather history database for the weather conditions in past years. The results will help you decide how hot, cold, wet, or windy it might be!

Date:

Astronomy

Feb. 15, 2013 Rise Set
Actual Time 7:12 AM CST 6:11 PM CST
Civil Twilight 6:47 AM CST 6:37 PM CST
Nautical Twilight 6:17 AM CST 7:07 PM CST
Astronomical Twilight 5:48 AM CST 7:36 PM CST
Moon 10:06 AM CST (2/15) 11:55 PM CST (2/15)
Length of Visible Light 11h 50m
Length of Day
10h 59m
Waxing Crescent, 30% of the Moon is Illuminated
Feb 15
Waxing Crescent
Feb 17
First Quarter
Feb 25
Full
Mar 4
Last Quarter
Mar 11
New

Hourly Weather History & Observations

Time (CST) Temp. Windchill Dew Point Humidity Pressure Visibility Wind Dir Wind Speed Gust Speed Precip Events Conditions
12:15 AM 50.0 °F - 33.8 °F 54% 30.19 in 10.0 mi NNE 17.3 mph 26.5 mph N/A   Clear
12:35 AM 50.0 °F - 33.8 °F 54% 30.19 in 10.0 mi NNE 16.1 mph 26.5 mph N/A   Clear
12:55 AM 50.0 °F - 33.8 °F 54% 30.20 in 10.0 mi NNE 19.6 mph 26.5 mph N/A   Clear
1:15 AM 50.0 °F - 33.8 °F 54% 30.21 in 10.0 mi North 18.4 mph 24.2 mph N/A   Clear
1:35 AM 48.2 °F - 35.6 °F 62% 30.22 in 10.0 mi North 17.3 mph 24.2 mph N/A   Clear
1:55 AM 46.4 °F 38.7 °F 35.6 °F 66% 30.23 in 10.0 mi North 20.7 mph 24.2 mph N/A   Clear
2:15 AM 44.6 °F 37.8 °F 37.4 °F 76% 30.23 in 10.0 mi North 15.0 mph 19.6 mph N/A Rain Light Rain
2:35 AM 44.6 °F 37.4 °F 37.4 °F 76% 30.23 in 10.0 mi North 16.1 mph 23.0 mph N/A   Scattered Clouds
2:55 AM 44.6 °F 37.8 °F 35.6 °F 71% 30.24 in 10.0 mi North 15.0 mph 25.3 mph N/A   Clear
3:15 AM 44.6 °F 36.9 °F 33.8 °F 66% 30.24 in 10.0 mi NNE 18.4 mph 27.6 mph N/A   Clear
3:35 AM 44.6 °F 38.1 °F 33.8 °F 66% 30.25 in 10.0 mi North 13.8 mph 23.0 mph N/A   Clear
3:55 AM 44.6 °F 37.8 °F 35.6 °F 71% 30.24 in 10.0 mi NNE 15.0 mph 19.6 mph N/A   Mostly Cloudy
4:15 AM 44.6 °F 38.1 °F 35.6 °F 71% 30.25 in 10.0 mi North 13.8 mph 20.7 mph N/A   Scattered Clouds
4:35 AM 44.6 °F 39.2 °F 35.6 °F 71% 30.27 in 10.0 mi North 10.4 mph 17.3 mph N/A   Scattered Clouds
4:55 AM 42.8 °F 36.2 °F 35.6 °F 76% 30.28 in 10.0 mi North 12.7 mph 27.6 mph N/A   Clear
5:15 AM 42.8 °F 37.5 °F 33.8 °F 70% 30.28 in 10.0 mi North 9.2 mph - N/A   Clear
5:35 AM 42.8 °F 37.0 °F 32.0 °F 66% 30.29 in 10.0 mi NNE 10.4 mph - N/A   Clear
8:55 AM 41.0 °F 33.9 °F 28.4 °F 61% 30.37 in 10.0 mi North 12.7 mph 17.3 mph N/A   Clear
9:55 AM 42.8 °F 35.1 °F 24.8 °F 49% 30.38 in 10.0 mi NNE 16.1 mph 19.6 mph N/A   Clear
10:55 AM 44.6 °F 38.8 °F 24.8 °F 46% 30.39 in 10.0 mi North 11.5 mph - N/A   Clear
11:55 AM 46.4 °F 40.4 °F 23.0 °F 40% 30.39 in 10.0 mi NNE 13.8 mph 19.6 mph N/A   Clear
12:55 PM 44.6 °F 38.8 °F 23.0 °F 43% 30.38 in 10.0 mi North 11.5 mph - N/A   Clear
10:35 PM 32.0 °F - 23.0 °F 69% 30.37 in 10.0 mi Calm Calm - N/A   Clear
10:55 PM 32.0 °F - 23.0 °F 69% 30.38 in 10.0 mi Calm Calm - N/A   Clear
11:15 PM 32.0 °F - 23.0 °F 69% 30.37 in 10.0 mi Calm Calm - N/A   Clear
11:35 PM 32.0 °F - 23.0 °F 69% 30.37 in 10.0 mi Calm Calm - N/A   Clear
11:55 PM 32.0 °F - 23.0 °F 69% 30.37 in 10.0 mi Calm Calm - N/A   Clear